This demonstration page uses our WeatherBlox Daily Observations layout. Learn more.

Left ArrowRight Arrow

39.92423, -83.80882

Hourly Observations for March 4, 2017

Temp ( °F °C ) Dew Point ( °F °C ) Humidity (%) Winds ( mph kmh ) Pressure ( in mb ) Visibility ( mi km ) Precip ( " mm )
12:56 am 00:56 Partly Cloudy 24 -4.4 15 -9.4 68 68 Calm 30.63 1037 10 16.0934 0 0
1:56 am 01:56 Partly Cloudy 23 -5 14 -10 68 68 WNW 3 6 30.64 1038 10 16.0934 0 0
2:56 am 02:56 Cloudy 22 -5.6 17 -8.3 82 82 Calm 30.63 1037 10 16.0934 0 0
3:56 am 03:56 Partly Cloudy 21 -6.1 17 -8.3 85 85 E 3 6 30.63 1037 10 16.0934 0 0
4:56 am 04:56 Mostly Cloudy 23 -5 16 -8.9 74 74 Calm 30.64 1038 10 16.0934 0 0
5:56 am 05:56 Cloudy 22 -5.6 17 -8.3 82 82 ESE 3 6 30.64 1038 10 16.0934 0 0
6:56 am 06:56 Cloudy 24 -4.4 13 -10.6 62 62 SSE 5 7 30.67 1039 10 16.0934 0 0
7:56 am 07:56 Cloudy 24 -4.4 14 -10 65 65 SE 7 11 30.67 1039 10 16.0934 0 0
8:56 am 08:56 Cloudy with Light Snow 25 -3.9 15 -9.4 66 66 SSE 8 13 30.7 1040 9 14.48406 0 0.0254
9:14 am 09:14 Cloudy with Light Snow 25 -4 18 -8 74 74 SSE 7 11 30.71 1040 6 9.65604 0 0.0254
9:25 am 09:25 Cloudy with Light Snow 25 -4 18 -8 74 74 SE 7 11 30.71 1040 9 14.48406 0 0.0254
9:52 am 09:52 Cloudy with Light Snow 25 -4 18 -8 74 74 ESE 6 9 30.71 1040 9 14.48406 0 0.0254
9:56 am 09:56 Cloudy with Light Snow 25 -3.9 18 -7.8 75 75 ESE 7 11 30.71 1040 8 12.87472 0 0.0254
10:56 am 10:56 Cloudy with Light Snow 26 -3.3 21 -6.1 81 81 ESE 8 13 30.71 1040 5 8.0467 0 0.0254
11:12 am 11:12 Cloudy with Light Snow 27 -3 21 -6 80 80 E 10 17 30.71 1040 5 8.0467 0 0.0254
11:35 am 11:35 Cloudy with Light Snow 27 -3 21 -6 80 80 E 12 19 30.71 1040 8 12.87472 0 0.0254
11:46 am 11:46 Cloudy with Light Snow 27 -3 23 -5 86 86 E 10 17 30.71 1040 5 8.0467 0 0.0254
11:56 am 11:56 Cloudy with Light Snow 27 -2.8 23 -5 85 85 E 14 22 30.68 1039 7 11.26538 0 0.0254
12:43 pm 12:43 Cloudy with Light Snow 28 -2 23 -5 80 80 SE 8 13 30.68 1039 9 14.48406 0 0.0254
12:56 pm 12:56 Cloudy with Light Snow 29 -1.7 23 -5 78 78 SSE 10 17 30.66 1038 9 14.48406 0 0.0254
1:56 pm 13:56 Cloudy 31 -0.6 24 -4.4 76 76 SE 12 19 30.63 1037 10 16.0934 0 0.0254
2:56 pm 14:56 Cloudy 33 0.6 22 -5.6 64 64 E 12 19 30.6 1036 10 16.0934 0 0
3:51 pm 15:51 Partly Cloudy 34 1 23 -5 65 65 E 13 20 30.56 1035 10 16.0934 0 0
3:56 pm 15:56 Partly Cloudy 35 1.7 22 -5.6 59 59 E 14 22 30.58 1036 10 16.0934 0 0
4:56 pm 16:56 Sunny 35 1.7 21 -6.1 57 57 E 12 19 30.58 1036 10 16.0934 0 0
5:56 pm 17:56 Sunny 33 0.6 21 -6.1 61 61 ESE 10 17 30.58 1036 10 16.0934 0 0
6:56 pm 18:56 Clear 29 -1.7 22 -5.6 75 75 E 7 11 30.58 1036 10 16.0934 0 0
7:56 pm 19:56 Clear 27 -2.8 21 -6.1 78 78 E 9 15 30.58 1036 10 16.0934 0 0
8:56 pm 20:56 Clear 27 -2.8 21 -6.1 78 78 E 8 13 30.58 1036 10 16.0934 0 0
9:56 pm 21:56 Clear 28 -2.2 21 -6.1 75 75 E 10 17 30.58 1035 10 16.0934 0 0
10:56 pm 22:56 Clear 29 -1.7 20 -6.7 69 69 ESE 12 19 30.56 1035 10 16.0934 0 0
11:56 pm 23:56 Clear 28 -2.2 20 -6.7 72 72 ESE 13 20 30.55 1035 10 16.0934 0 0

Powered by AerisWeather